User: anonymous
Location: Unspecified
(0.0000°N, 0.0000°E)
Time: 01:03:04
(UTC+00:00)
Language:

Aussat K1 - Orbit

View from above orbital plane
View from above orbital plane
View from above satellite
View from above satellite

Ground track
Ground track

The orbit data is extracted from the following two-line orbital elements,

1 15993U 85076B   14239.74104211  .00000000  00000-0  10000-3 0  8276
2 15993 014.8583 018.4363 0002564 174.0644 185.9913 00.99763614 76572
Epoch (UTC): 27 August 2014 17:47:06
Eccentricity: 0.0002564
inclination: 14.8583°
perigee height: 35918 km
apogee height: 35940 km
right ascension of ascending node: 18.4363°
argument of perigee: 174.0644°
revolutions per day: 0.99763614
mean anomaly at epoch: 185.9913°
orbit number at epoch: 7657

The dashed part of the orbit path shows where the satellite is in the earth's shadow,  

DLR